Torna al catalogo

USA 198

AttivoMilitareHEO
NORAD 32378·PAYLOAD·🇺🇸 United States

Lanciato Dec 10, 2007 da Cape Canaveral Space Force Station

Loading…

Prossimi Passaggi (prossime 24 ore)

TLE

AggiornatoSource: Mike McCants

Epoca: Sep 14, 2026, 20:32 UTC

1 32378U 07060A   26257.85565942  .00000597  00000-0  00000-0 0    06
2 32378  63.9470 113.2307 7228419 262.0577  18.0034  2.00596936  4575

Traccia USA 198 in tempo reale con AllMySat

Download on the App Store